This is the latest recevied weather packets stored in our database for station/object N5UKZ-WX. If no packets are shown the sender has not sent any weather packets the latest 10 day(s).
| Time | Temp. | Humidity | Pressure | Rain* | Wind** | Luminosity | Snow |
|---|---|---|---|---|---|---|---|
| 1777665966 | 17.22° C | 100% | 1011.6 hPa | 0 mm | - | - | - |
| 1777665066 | 16.11° C | 100% | 1011.6 hPa | 0 mm | - | - | - |
| 1777664166 | 16.67° C | 100% | 1011.9 hPa | 0 mm | - | - | - |
| 1777663266 | 16.67° C | 100% | 1010.9 hPa | 0 mm | - | - | - |
| 1777662366 | 16.67° C | 100% | 1010.2 hPa | 0 mm | - | - | - |
| 1777661466 | 17.78° C | 100% | 1011.2 hPa | 0 mm | - | - | - |
| 1777660565 | 17.22° C | 100% | 1011.2 hPa | 0 mm | - | - | - |
| 1777659665 | 18.33° C | 100% | 1010.2 hPa | 0 mm | - | - | - |
| 1777658765 | 18.33° C | 100% | 1010.5 hPa | 0 mm | - | - | - |
| 1777657865 | 18.89° C | 100% | 1010.5 hPa | 0 mm | - | - | - |
| 1777656964 | 19.44° C | 100% | 1011.6 hPa | 0 mm | - | - | - |
| 1777656064 | 18.33° C | 100% | 1011.2 hPa | 0 mm | - | - | - |
| 1777655164 | 18.33° C | 100% | 1011.6 hPa | 0 mm | - | - | - |
| 1777654264 | 18.89° C | 100% | 1012.2 hPa | 0 mm | - | - | - |
| 1777653364 | 19.44° C | 100% | 1012.9 hPa | 0 mm | - | - | - |
| 1777652464 | 18.89° C | 100% | 1012.9 hPa | 0 mm | - | - | - |
| 1777651563 | 19.44° C | 100% | 1012.6 hPa | 0 mm | - | - | - |
| 1777650663 | 19.44° C | 100% | 1012.9 hPa | 0 mm | - | - | - |
| 1777649763 | 19.44° C | 100% | 1013.6 hPa | 0 mm | - | - | - |
| 1777648863 | 18.89° C | 100% | 1013.6 hPa | 0 mm | - | - | - |
| 1777647963 | 19.44° C | 100% | 1013.6 hPa | 0 mm | - | - | - |
| 1777647062 | 19.44° C | 100% | 1013.2 hPa | 0 mm | - | - | - |
| 1777646162 | 19.44° C | 100% | 1012.9 hPa | 0 mm | - | - | - |
| 1777645262 | 18.89° C | 100% | 1012.9 hPa | 0 mm | - | - | - |
| 1777644362 | 18.89° C | 100% | 1012.9 hPa | 0 mm | - | - | - |
* Rain latest hour (hover to see other rain measurements)
** Current wind speed in m/s (hover to see current wind gust speed)